Location: Lynch Observatory
(39.9540°N, 75.1861°W)
Time: 11:35:23
(UTC-04:00)

CAS-4B - Pass Details

Date: 29 April 2024
Orbit: 474 x 492 km, 43.0° (Epoch: 26 May)

Event Time Altitude Azimuth Distance (km) Brightness Sun altitude
Exits shadow 04:22:05 44° 256° (WSW) 674 ? -17.7°
Maximum altitude 04:22:57 58° 205° (SSW) 567 ? -17.6°
Drops below altitude 10° 04:26:41 10° 126° (SE) 1,662 ? -17.0°
Sets 04:28:53 0° 122° (ESE) 2,544 ? -16.7°
